INMARSAT 5-F4 (42698 NORAD) Tracking and Keplerian Element Data

This shows tracking and keplerian element data for the satellite.

Feedback or suggestion? Click here.




ElementValue
Catalog42698
NameINMARSAT 5-F4
Epoch Orbit1962
Epoch Day269.21993921
Epoch Year2022
RAAN191.4722
Inclination0.0239
Eccentricity2.53E-05
Argument of Perigee99.4266
Mean Anonmoly209.7878
Mean Motion1.00269135
Decay Rate7.7E-07
L11 42698U 17025A 22269.21993921 .00000077 00000+0 00000+0 0 9993
L22 42698 0.0239 191.4722 0000253 99.4266 209.7878 1.00269135 19623

Live tracking and technical data element details for INMARSAT 5-F4 (NORAD 42698). INMARSAT 5-F4 can be tracked NOW for your location showing map with azimuth and elevation plus other details from your city location.

Track the satellite on the map from your city or location and see movement details for azimuth, elevation, latitude, longitude, range, height, and movement on the map or in text.







IsCatalogInMostPopularTable: catalog: 42698, numindb: 751
Update: records affected: 1



GetName: 42698 INMARSAT 5-F4

Hit Count: updated at: Thu, 29 Sep 2022 11:32:59 GMT